Wind_Speed
33 34 35 36 38 39 38 38 38 39 39 39 39 40 40 40 41 41 40 40 40 40 38 39 38 38 38 38 38 37 37 36 36 35 35 34 35 35 36 36 36 37 37
33 34 33 35 37 39 39 39 38 38 39 39 39 39 40 40 40 40 40 39 39 39 38 37 38 38 38 38 38 37 36 36 35 35 34 35 36 36 37 37 37 37 37
32 32 33 34 35 37 39 39 39 39 38 38 39 39 39 40 40 40 40 40 39 39 38 37 36 37 38 38 39 39 38 37 35 35 36 37 37 37 38 38 38 38 38
32 33 34 34 34 36 38 39 39 39 38 38 38 38 39 40 40 40 40 40 40 39 39 38 38 38 38 38 39 39 38 38 38 38 38 38 38 38 37 37 38 39 39
33 33 34 35 35 35 37 38 39 39 39 39 39 39 40 40 40 40 41 41 41 41 40 39 39 39 38 38 38 39 39 41 42 41 41 41 40 40 40 39 39 40 40
34 34 34 35 35 35 36 37 39 40 40 40 40 40 41 41 41 41 41 42 42 42 41 41 40 40 40 39 39 40 41 41 42 42 42 42 43 42 42 41 41 41 42
34 35 35 35 35 35 36 37 38 39 40 40 41 41 41 41 41 42 42 42 42 42 42 42 42 41 42 41 41 42 43 43 43 43 43 43 44 44 44 43 43 42 42
32 33 34 35 36 36 37 37 38 39 39 40 41 41 41 41 41 42 41 42 42 42 42 43 43 43 43 43 43 43 43 43 44 44 44 44 44 43 44 44 44 43 42
32 32 33 34 35 36 37 37 38 39 39 39 40 40 41 41 41 42 41 42 43 43 43 44 44 45 44 44 44 43 44 44 44 44 44 44 45 45 45 46 46 45 44
33 33 33 34 35 36 37 37 37 38 39 40 40 41 42 42 42 42 42 42 43 44 44 45 46 46 46 45 44 44 44 44 45 45 44 44 45 45 47 48 48 48 47
34 34 34 35 36 36 37 37 37 38 39 40 41 41 41 42 43 43 43 44 44 44 45 45 46 47 47 47 46 46 46 45 45 45 46 46 45 46 46 47 48 48 48
34 34 35 36 36 36 37 38 38 39 39 40 41 41 42 42 43 44 44 45 45 45 45 46 47 48 48 48 48 48 47 46 46 46 46 47 47 47 47 47 47 48 48
33 34 35 36 37 37 37 38 39 40 41 41 41 42 43 43 44 44 44 45 46 46 47 47 47 48 48 48 48 48 47 47 47 47 46 47 47 48 48 48 48 48 48
32 33 34 35 37 38 39 39 40 41 41 42 43 43 44 44 44 44 44 45 46 47 47 47 47 48 48 48 48 48 47 47 47 46 46 46 46 47 48 48 48 48 48
32 33 33 35 37 38 39 40 41 42 42 42 43 43 43 43 44 44 45 45 45 47 47 47 47 47 47 47 47 48 47 47 47 47 47 47 48 48 48 49 49 49 48
33 34 35 36 37 38 39 40 40 40 41 42 42 43 43 43 43 44 44 45 46 46 46 46 46 47 47 46 47 47 48 48 47 48 48 49 49 49 49 49 49 49 48
32 33 34 35 36 37 38 39 40 40 40 40 40 40 41 43 44 44 43 44 44 45 45 45 46 46 46 47 47 47 47 47 47 47 48 48 49 49 48 49 48 48 48
32 32 32 33 34 35 36 37 38 39 39 40 40 40 41 41 42 42 42 42 42 42 42 43 44 44 45 46 46 47 46 46 46 46 47 48 47 47 47 47 48 48 49
33 32 31 33 33 33 34 34 35 36 37 38 39 39 40 40 40 41 41 41 41 41 41 41 42 42 43 43 44 45 45 45 45 45 45 46 46 46 47 47 47 47 48
32 32 32 33 33 33 34 34 34 35 36 36 37 37 38 39 39 39 40 40 39 39 39 40 41 41 41 41 42 43 43 44 44 44 43 43 44 44 45 45 46 46 47
30 31 31 31 32 32 33 34 34 34 35 35 35 35 35 36 37 37 37 37 37 38 38 38 39 40 40 41 42 42 42 42 42 42 42 42 42 42 43 43 43 44 44
29 30 30 30 30 31 32 32 32 33 34 34 34 34 34 34 34 35 36 36 36 36 36 37 38 38 38 39 39 40 41 41 41 41 41 41 42 42 42 42 42 43 43
29 30 30 29 30 30 30 30 30 31 31 32 32 32 32 33 33 34 35 34 35 35 36 36 36 36 37 38 38 38 38 39 39 39 39 40 40 40 41 41 42 42 42
29 30 30 30 30 29 29 29 29 29 29 30 30 30 31 32 32 33 33 34 35 35 35 35 35 36 36 37 37 37 37 38 38 39 39 38 39 40 40 41 41 41 41
28 29 29 30 29 29 29 29 28 28 29 28 28 29 30 31 31 31 31 32 33 34 35 35 36 36 36 36 36 36 37 38 38 38 38 38 39 39 39 40 41 41 41
27 27 28 28 28 29 29 29 28 28 27 27 27 29 30 31 31 31 31 31 32 33 34 34 35 35 35 35 35 36 36 36 37 37 37 37 38 39 39 40 40 40 40
Wind_Direction
255 255 254 251 250 251 250 251 251 252 253 253 253 254 255 256 257 258 258 259 259 261 264 266 267 268 268 268 269 269 268 268 267 265 264 263 264 265 266 267 267 267 268
257 257 257 255 254 253 253 252 253 252 253 254 254 255 255 256 257 258 260 260 261 262 265 267 268 268 269 269 269 268 267 267 266 264 264 263 264 265 266 267 267 268 269
259 259 258 258 257 255 252 252 253 253 254 254 254 254 255 256 257 259 261 263 263 262 264 265 268 269 269 270 270 268 267 265 265 265 267 267 266 266 265 265 266 268 269
258 259 259 258 257 255 253 253 253 253 254 254 254 255 257 258 259 260 262 264 266 265 265 267 268 269 270 270 269 267 266 265 265 267 268 268 267 268 267 266 267 268 270
258 259 259 259 258 256 254 253 252 252 253 254 254 255 257 259 259 260 261 263 265 266 267 268 270 270 271 271 269 266 266 268 268 267 268 268 269 269 269 269 269 270 271
257 258 258 258 258 257 255 254 254 254 255 256 256 257 258 259 260 261 262 264 265 266 268 269 270 271 270 271 269 268 269 269 268 268 267 268 269 269 269 271 271 272 271
258 259 258 256 256 257 256 256 256 257 257 257 258 258 259 260 261 262 263 264 265 266 267 268 271 271 271 271 269 270 271 271 270 268 268 268 269 268 268 270 272 272 271
260 260 258 257 257 257 257 257 257 257 258 259 259 259 259 260 261 262 263 264 265 265 266 267 269 271 270 270 270 270 271 271 270 270 269 268 268 269 269 270 270 270 270
260 260 259 259 259 258 258 257 256 257 259 260 260 260 260 261 262 262 263 264 265 265 266 267 268 269 269 269 271 270 270 270 271 270 269 268 267 268 269 269 269 269 269
260 260 260 260 260 258 258 258 257 258 258 259 260 261 262 262 262 264 264 265 266 266 266 266 267 268 268 270 270 270 271 271 271 271 269 269 268 268 269 269 269 270 270
261 260 261 261 261 260 258 257 257 258 259 260 261 262 263 262 262 263 263 264 266 266 266 266 267 268 269 269 269 270 271 271 271 271 271 271 270 269 269 269 270 271 271
262 261 261 261 261 261 260 259 258 260 261 262 262 262 263 264 263 263 263 264 265 266 266 267 267 267 268 269 270 271 271 271 271 271 271 271 271 270 270 270 270 271 272
263 262 262 262 262 262 261 261 261 262 262 263 264 264 263 264 265 265 265 264 264 265 266 266 266 265 266 268 270 270 271 271 271 271 271 272 271 271 271 271 271 272 273
265 265 264 264 263 263 263 263 264 264 263 263 264 264 264 265 266 266 266 266 266 266 266 266 266 265 266 267 269 270 269 270 270 270 271 271 271 271 271 271 272 272 272
267 267 268 267 266 266 265 265 265 264 264 265 265 265 265 266 267 268 268 268 268 268 267 267 266 266 266 267 268 268 269 269 270 270 271 270 270 270 271 271 271 271 272
270 270 270 270 269 268 268 267 265 264 265 265 265 265 265 267 268 268 269 269 269 269 268 267 267 267 267 268 268 269 269 269 269 270 270 270 270 270 270 271 271 271 271
273 272 272 272 272 271 270 269 268 267 267 266 266 266 266 267 269 270 271 270 270 270 268 268 268 268 268 268 268 269 269 270 271 271 270 270 270 271 270 270 270 271 272
274 274 274 274 274 273 272 270 270 269 269 268 267 267 267 269 270 271 272 272 271 270 269 268 269 269 269 269 269 271 271 271 271 271 271 271 271 271 271 271 272 272 273
275 276 276 275 275 274 273 272 272 271 271 271 269 269 269 270 271 272 272 272 272 271 269 269 269 269 269 270 270 271 272 270 270 270 270 271 271 272 272 272 273 273 273
277 277 277 277 276 275 274 274 273 273 273 272 271 270 270 271 271 272 272 273 272 271 270 270 270 270 270 271 271 271 271 270 270 270 270 270 270 270 271 272 274 274 275
279 279 280 279 279 277 276 275 275 274 274 273 272 270 271 272 271 271 271 272 271 270 270 271 271 270 270 270 270 270 270 270 269 269 269 269 269 269 270 272 274 275 275
283 282 282 282 281 279 278 277 277 276 275 274 272 271 272 272 272 271 271 270 269 270 271 272 272 272 272 272 272 271 271 271 270 269 268 268 269 270 271 273 275 276 276
286 284 283 282 282 281 279 279 279 277 276 275 274 272 273 273 273 274 273 270 269 270 271 272 272 273 273 273 273 272 272 272 271 271 270 269 270 271 273 275 276 276 276
287 284 282 281 281 281 281 280 279 278 277 276 275 274 274 274 276 276 274 272 270 270 272 273 273 273 273 274 273 273 273 273 273 272 272 272 272 273 274 276 277 278 278
289 286 284 283 282 282 282 281 279 278 278 278 276 276 276 276 277 277 276 274 272 272 273 273 273 273 274 274 274 275 275 275 274 274 274 273 273 273 275 276 278 279 280
291 289 287 287 284 282 283 281 279 278 278 278 277 278 278 278 278 277 277 276 274 274 274 274 274 274 275 275 276 277 277 277 276 275 274 274 274 275 276 277 278 279 280
Height
5721 5723 5726 5728 5730 5732 5735 5738 5741 5743 5745 5747 5749 5751 5753 5755 5756 5758 5759 5760 5761 5762 5763 5763 5763 5763 5763 5763 5762 5762 5762 5762 5762 5762 5764 5765 5765 5766 5767 5767 5768 5768 5769
5714 5716 5718 5720 5722 5724 5727 5730 5732 5735 5737 5739 5741 5742 5744 5746 5748 5749 5750 5751 5752 5753 5753 5754 5754 5754 5754 5754 5753 5753 5753 5753 5753 5754 5755 5756 5758 5758 5758 5758 5759 5759 5760
5707 5709 5711 5712 5714 5716 5718 5721 5724 5726 5728 5730 5732 5734 5735 5737 5739 5741 5742 5743 5743 5744 5745 5745 5745 5745 5745 5745 5744 5744 5744 5745 5745 5745 5746 5747 5748 5749 5750 5749 5750 5750 5750
5700 5702 5703 5704 5706 5708 5710 5713 5715 5718 5720 5722 5723 5725 5727 5729 5731 5732 5733 5734 5734 5735 5736 5736 5736 5736 5736 5735 5735 5735 5735 5736 5737 5737 5737 5738 5738 5739 5740 5741 5741 5741 5741
5693 5694 5695 5696 5698 5700 5702 5704 5707 5709 5711 5713 5715 5717 5718 5720 5721 5723 5724 5725 5725 5726 5727 5727 5727 5727 5727 5726 5726 5725 5726 5726 5727 5727 5728 5728 5728 5728 5729 5731 5732 5732 5731
5685 5686 5688 5689 5690 5692 5694 5696 5698 5700 5702 5704 5706 5708 5709 5710 5712 5713 5714 5715 5716 5716 5717 5717 5718 5718 5717 5717 5717 5716 5716 5716 5716 5717 5717 5718 5718 5719 5719 5720 5720 5721 5721
5676 5678 5679 5681 5683 5684 5685 5687 5689 5691 5692 5694 5696 5698 5700 5701 5702 5703 5705 5705 5706 5707 5707 5708 5708 5708 5708 5707 5707 5706 5706 5706 5706 5706 5707 5707 5707 5707 5708 5709 5709 5710 5710
5667 5669 5671 5672 5674 5676 5677 5678 5680 5681 5683 5685 5686 5688 5689 5691 5692 5693 5694 5695 5696 5696 5697 5697 5698 5698 5697 5697 5696 5696 5695 5695 5695 5695 5695 5696 5696 5696 5696 5697 5698 5698 5699
5659 5660 5662 5663 5665 5666 5668 5669 5671 5672 5673 5675 5676 5678 5679 5680 5682 5683 5684 5684 5685 5685 5686 5686 5687 5687 5686 5686 5685 5684 5684 5684 5683 5684 5684 5684 5684 5684 5685 5685 5685 5686 5687
5650 5651 5653 5654 5656 5657 5659 5660 5661 5662 5663 5665 5666 5667 5668 5669 5671 5672 5673 5673 5674 5674 5674 5675 5675 5675 5675 5675 5674 5674 5673 5672 5672 5672 5672 5672 5672 5672 5672 5672 5673 5673 5674
5641 5642 5644 5645 5646 5647 5649 5650 5651 5652 5653 5654 5655 5657 5657 5658 5659 5660 5661 5662 5662 5662 5662 5663 5663 5663 5663 5663 5662 5662 5661 5661 5660 5660 5660 5660 5660 5660 5660 5660 5660 5660 5660
5632 5633 5634 5635 5636 5637 5638 5640 5641 5642 5643 5644 5645 5645 5646 5647 5648 5648 5649 5650 5650 5651 5651 5651 5651 5651 5651 5650 5650 5650 5649 5649 5649 5648 5648 5647 5647 5647 5648 5647 5647 5647 5647
5623 5623 5624 5626 5626 5627 5628 5629 5630 5631 5632 5633 5634 5634 5635 5635 5636 5636 5637 5637 5638 5638 5638 5638 5638 5638 5638 5638 5637 5637 5636 5636 5636 5636 5635 5635 5634 5635 5635 5635 5635 5635 5634
5613 5614 5615 5615 5616 5617 5618 5618 5619 5620 5620 5621 5621 5622 5623 5623 5624 5624 5624 5624 5625 5625 5625 5625 5625 5625 5624 5624 5624 5624 5624 5623 5623 5623 5622 5622 5622 5622 5622 5622 5622 5621 5621
5604 5604 5605 5605 5606 5606 5607 5607 5607 5608 5608 5609 5609 5609 5610 5611 5611 5611 5611 5611 5611 5612 5612 5612 5612 5612 5611 5611 5611 5611 5610 5610 5610 5610 5609 5609 5608 5608 5608 5608 5608 5608 5608
5594 5595 5595 5595 5595 5595 5595 5595 5595 5595 5596 5596 5597 5597 5598 5598 5598 5599 5599 5598 5598 5598 5598 5598 5598 5598 5598 5598 5597 5597 5597 5597 5597 5597 5596 5595 5595 5594 5594 5594 5593 5594 5594
5585 5585 5585 5584 5584 5583 5583 5583 5583 5583 5583 5583 5584 5585 5585 5585 5586 5586 5586 5585 5585 5585 5585 5585 5585 5585 5585 5584 5584 5583 5583 5583 5583 5583 5582 5582 5581 5581 5580 5579 5579 5579 5579
5575 5575 5575 5574 5573 5572 5571 5571 5571 5571 5571 5571 5572 5572 5573 5573 5573 5573 5573 5572 5572 5572 5572 5572 5572 5571 5571 5570 5570 5569 5569 5569 5569 5569 5568 5568 5567 5567 5566 5566 5565 5565 5565
5566 5565 5564 5564 5563 5562 5561 5560 5560 5560 5560 5560 5560 5560 5560 5560 5561 5561 5560 5560 5560 5560 5560 5560 5559 5559 5558 5557 5556 5556 5555 5556 5556 5555 5555 5554 5554 5554 5553 5553 5552 5552 5551
5556 5556 5555 5553 5552 5551 5550 5550 5549 5549 5549 5548 5548 5548 5548 5548 5549 5549 5548 5548 5547 5547 5547 5547 5547 5546 5546 5545 5544 5543 5543 5543 5543 5542 5542 5541 5541 5540 5539 5539 5539 5539 5538
5547 5546 5545 5543 5542 5541 5540 5539 5539 5538 5537 5537 5536 5536 5537 5537 5536 5536 5536 5536 5536 5536 5536 5535 5535 5534 5534 5533 5532 5531 5530 5530 5530 5530 5529 5529 5528 5528 5527 5527 5526 5525 5524
5538 5537 5535 5534 5533 5531 5530 5530 5529 5528 5527 5526 5526 5526 5526 5525 5525 5524 5524 5524 5524 5524 5524 5523 5523 5522 5521 5520 5520 5519 5518 5518 5517 5517 5517 5517 5516 5516 5515 5514 5514 5513 5512
5529 5528 5526 5525 5523 5522 5521 5520 5519 5518 5517 5516 5516 5515 5515 5515 5514 5513 5513 5512 5513 5513 5513 5512 5512 5511 5510 5509 5508 5507 5506 5506 5505 5505 5505 5505 5504 5504 5503 5502 5501 5500 5499
5520 5518 5517 5516 5515 5513 5512 5511 5510 5508 5507 5507 5506 5506 5505 5505 5504 5503 5502 5502 5502 5501 5501 5501 5501 5500 5499 5498 5497 5496 5495 5494 5494 5493 5493 5493 5492 5492 5491 5490 5489 5488 5486
5511 5509 5508 5507 5506 5505 5503 5502 5501 5499 5499 5498 5497 5497 5496 5495 5494 5493 5492 5491 5491 5490 5491 5490 5490 5489 5488 5487 5486 5484 5484 5483 5482 5481 5481 5481 5481 5480 5479 5478 5477 5475 5474
5503 5501 5500 5498 5497 5496 5495 5493 5492 5491 5490 5490 5489 5488 5487 5486 5484 5483 5482 5481 5481 5480 5479 5479 5478 5478 5477 5476 5475 5474 5472 5471 5470 5470 5470 5470 5469 5468 5467 5466 5465 5464 5462